[[{"header":{"parameterUnit":"m.s-1","parameterCategory":1,"la1":30.2991,"la2":30.254,"lo1":-89.0895,"lo2":-89.0444,"dy":0.0017,"dx":0.0017,"nx":28,"ny":28,"refTime":"2025-03-11T09:00:00:Z","depth":0,"parameterNumber":2,"parameterNumberName":"U-component_of_WINDS"},"data":[0,0,0,0,0,0,0,0,0,0,0,0,0,0,0,0,0,0,0,0,0,0,0,0,0,0,0,0,0,0,0,0,0,0,0,0,0,0,0,0,0,0,0,0,0,0,0,0,0,0,0,0,0,0,0,0,0,0,1.3245,1.3245,0,1.3245,1.3245,1.3245,1.3203,1.3202,1.3201,1.32,1.3199,1.32,1.3201,0,0,0,0,0,0,0,0,0,0,0,0,0,1.3209,1.321,1.3245,1.3245,1.3245,1.3245,1.3245,1.3245,1.3203,1.3202,1.32,1.3199,1.3199,1.32,1.3201,0,0,0,0,0,0,0,0,0,0,0,0,0,1.3218,1.321,1.3245,1.3224,1.3222,1.3245,1.3245,1.3245,1.3203,1.3202,1.32,1.3198,1.3198,1.32,1.3201,1.3244,0,0,1.3206,1.3207,0,0,0,0,0,0,0,0,1.3218,1.322,1.3227,1.3225,1.3223,1.3222,1.3232,1.3244,1.3204,1.321,1.32,1.3198,1.3208,1.3209,1.3212,1.3244,1.3244,1.3206,1.3207,1.3208,1.3208,0,0,0,0,0,0,0,1.3217,1.322,1.3245,1.3227,1.3225,1.3215,1.3214,1.3234,1.3219,1.321,1.3207,1.3207,1.3207,1.3211,1.3212,1.3244,1.3206,1.3208,1.3209,1.3209,1.3311,1.3313,0,0,0,0,0,0,1.322,1.3219,1.3245,1.3245,1.3217,1.3217,1.3216,1.3224,1.3218,1.3216,1.3209,1.3205,1.3209,1.321,1.3212,1.3261,1.3208,1.3209,1.321,1.3309,1.3311,1.3313,0,0,0,0,0,0,1.3219,1.3222,1.3245,1.3231,1.3233,1.3219,1.3228,1.3225,1.3229,1.3217,1.3214,1.3216,1.3208,1.321,1.3236,1.3261,1.321,1.3211,1.3307,1.331,1.3312,1.3361,0,0,0,0,0,0,1.3218,1.3222,1.3238,1.3232,1.3234,1.3269,1.323,1.3226,1.3232,1.3228,1.3223,1.3221,1.3207,1.3234,1.3238,1.3262,1.3213,1.3305,1.3308,1.3311,1.3357,1.3365,1.3372,0,0,0,0,0,1.3217,1.3252,1.3239,1.3242,1.3254,1.3271,1.3272,1.3255,1.3234,1.325,1.3243,1.3221,1.3258,1.3237,1.3241,1.3266,1.3303,1.3307,1.3311,1.3354,1.3363,1.3372,0,0,0,0,0,0,1.3261,1.325,1.3236,1.327,1.3272,1.3264,1.3283,1.3266,1.3273,1.3269,1.3247,1.3247,1.3277,1.3274,1.3252,1.3307,1.3277,1.3282,1.3308,1.3317,1.3324,1.3324,1.3214,0,0,0,0,0,1.3274,1.3289,1.3279,1.331,1.3311,1.3297,1.3304,1.3291,1.3292,1.3292,1.3287,1.3288,1.33,1.3308,1.3319,1.3357,1.3355,1.3376,1.3383,1.3389,1.3394,1.3414,1.3423,1.3326,1.3326,1.3326,0,0,1.3302,1.3299,1.3309,1.3319,1.3318,1.3334,1.3298,1.3316,1.3328,1.3295,1.332,1.3316,1.3316,1.3349,1.3363,1.3348,1.342,1.3394,1.3399,1.34,1.3419,1.3428,1.3436,1.3329,1.3329,1.3328,0,0,1.3362,1.336,1.3386,1.3387,1.3387,1.3377,1.3384,1.3379,1.3375,1.34,1.3376,1.3389,1.341,1.3411,1.3415,1.3476,1.3457,1.348,1.3518,1.3539,1.3546,1.3553,1.3575,1.3583,1.3485,1.3485,1.3485,0,1.3396,1.3419,1.3401,1.3421,1.3426,1.3398,1.3424,1.3425,1.3429,1.3433,1.3416,1.3442,1.344,1.3473,1.3488,1.3492,1.3498,1.348,1.3547,1.3553,1.3559,1.358,1.3588,1.3488,1.3487,1.3487,1.3487,0,1.3463,1.3479,1.35,1.3504,1.3512,1.3535,1.352,1.353,1.3517,1.3509,1.3535,1.3532,1.3542,1.3549,1.3535,1.358,1.357,1.355,1.3519,1.3571,1.3591,1.3598,1.3492,1.3491,1.349,1.3489,0,0,1.3549,1.3544,1.3552,1.3554,1.3552,1.3565,1.3587,1.3596,1.3605,1.3609,1.3627,1.3646,1.3627,1.3631,1.3618,1.3636,1.3685,1.3614,1.3613,1.3627,1.3735,1.375,1.376,1.3673,1.3674,1.3675,1.3735,0,1.3606,1.3644,1.3628,1.3667,1.3682,1.3656,1.3675,1.3677,1.367,1.3683,1.3676,1.3689,1.3664,1.3666,1.3683,1.3676,1.3707,1.3671,1.3689,1.369,1.369,1.377,1.3786,1.3842,1.3742,1.3743,1.3744,0,1.3678,1.3686,1.3726,1.3723,1.3729,1.3746,1.3754,1.3766,1.3768,1.3762,1.3767,1.375,1.3772,1.3741,1.3771,1.3747,1.3754,1.3752,1.3754,1.3754,1.372,1.3773,1.3859,1.3868,1.3756,1.3755,1.3754,0,1.3738,1.3758,1.3784,1.3787,1.3784,1.3797,1.3796,1.3796,1.3803,1.381,1.3814,1.3824,1.3829,1.3837,1.3823,1.3802,1.3855,1.3823,1.3851,1.3851,1.3863,1.3862,1.3952,1.3867,1.3867,1.3867,1.3867,0,1.3804,1.383,1.3811,1.3828,1.3856,1.3838,1.3867,1.3863,1.3863,1.3879,1.3857,1.3872,1.3853,1.3866,1.3855,1.3882,1.3884,1.388,1.3877,1.3882,1.3883,1.3886,1.3882,1.3869,1.3869,1.3868,1.3868,0,1.3874,1.3863,1.3891,1.3886,1.3885,1.3906,1.3902,1.3917,1.391,1.393,1.3934,1.3922,1.3937,1.3924,1.3938,1.3931,1.3966,1.3957,1.3966,1.3963,1.3992,1.399,1.4087,1.4098,1.4007,1.4007,1.4008,0,1.3917,1.3937,1.3934,1.3943,1.3944,1.3959,1.3966,1.3949,1.3958,1.3961,1.3976,1.3989,1.3998,1.4023,1.4016,1.4027,1.4018,1.4051,1.4019,1.4024,1.4019,1.4018,1.402,1.4058,1.4059,1.406,1.406,0,1.3995,1.3989,1.4,1.401,1.4019,1.4026,1.4031,1.404,1.4023,1.4033,1.4048,1.4056,1.407,1.4083,1.4092,1.4091,1.4073,1.4071,1.4078,1.4083,1.4087,1.4085,1.3983,1.4068,1.4068,1.4067,1.4067,1.4066,1.4053,1.4069,1.407,1.4084,1.4086,1.4092,1.4106,1.4101,1.4113,1.4123,1.4113,1.4131,1.4133,1.4142,1.4144,1.4158,1.4144,1.4154,1.4157,1.4159,1.4164,1.4085,1.4159,1.4159,1.4159,1.4159,1.4158,0,1.413,1.4129,1.4142,1.415,1.4161,1.4143,1.4148,1.4159,1.4175,1.4178,1.4188,1.4205,1.4218,1.4212,1.4223,1.4236,1.4228,1.4239,1.4238,1.4238,1.4175,1.4168,1.4245,1.4245,1.4245,1.4245,1.4245,1.4245,1.4171,1.4198,1.4192,1.4219,1.4218,1.4236,1.4241,1.4246,1.4248,1.4268,1.4279,1.4275,1.4275,1.4286,1.4297,1.4295,1.43,1.4315,1.431,1.4251,1.4242,1.4234,1.4227,1.4316,1.4316,1.4371,1.4372,1.4372]},{"header":{"parameterUnit":"m.s-1","parameterCategory":1,"la1":30.2991,"la2":30.254,"lo1":-89.0895,"lo2":-89.0444,"dy":0.0017,"dx":0.0017,"nx":28,"ny":28,"refTime":"2025-03-11T09:00:00:Z","depth":0,"parameterNumber":3,"parameterNumberName":"V-component_of_WINDS"},"data":[0,0,0,0,0,0,0,0,0,0,0,0,0,0,0,0,0,0,0,0,0,0,0,0,0,0,0,0,0,0,0,0,0,0,0,0,0,0,0,0,0,0,0,0,0,0,0,0,0,0,0,0,0,0,0,0,0,0,-1.707,-1.7071,0,-1.7151,-1.7152,-1.7153,-1.716,-1.7159,-1.7158,-1.7158,-1.724,-1.7243,-1.7246,0,0,0,0,0,0,0,0,0,0,0,0,0,-1.6922,-1.6925,-1.707,-1.7071,-1.7072,-1.7151,-1.7152,-1.7153,-1.716,-1.7159,-1.7158,-1.7157,-1.7239,-1.7242,-1.7246,0,0,0,0,0,0,0,0,0,0,0,0,0,-1.6993,-1.6926,-1.707,-1.7085,-1.7087,-1.715,-1.7152,-1.7153,-1.7161,-1.7159,-1.7158,-1.7157,-1.7238,-1.7242,-1.7246,-1.7299,0,0,-1.726,-1.7262,0,0,0,0,0,0,0,0,-1.6989,-1.6998,-1.7082,-1.7084,-1.7087,-1.7144,-1.713,-1.7202,-1.7161,-1.7133,-1.7158,-1.7156,-1.7209,-1.7216,-1.7234,-1.7303,-1.7307,-1.726,-1.7263,-1.7265,-1.7266,0,0,0,0,0,0,0,-1.6984,-1.6995,-1.7102,-1.7083,-1.7086,-1.7088,-1.7097,-1.7143,-1.7177,-1.7135,-1.7136,-1.7145,-1.721,-1.7229,-1.7236,-1.7308,-1.726,-1.7264,-1.7267,-1.7269,-1.7425,-1.7426,0,0,0,0,0,0,-1.6976,-1.6991,-1.7099,-1.7104,-1.7034,-1.7092,-1.7101,-1.7127,-1.7177,-1.7183,-1.7146,-1.7145,-1.7222,-1.723,-1.7239,-1.7304,-1.7265,-1.7269,-1.7272,-1.7423,-1.7425,-1.7427,0,0,0,0,0,0,-1.6973,-1.6986,-1.7096,-1.7048,-1.7062,-1.7096,-1.7124,-1.7129,-1.7149,-1.7185,-1.7191,-1.716,-1.7222,-1.7232,-1.7284,-1.7307,-1.7271,-1.7275,-1.7422,-1.7424,-1.7426,-1.7434,0,0,0,0,0,0,-1.6969,-1.6985,-1.7005,-1.7048,-1.7065,-1.7141,-1.7126,-1.7132,-1.7156,-1.7156,-1.7199,-1.7205,-1.7221,-1.7277,-1.7289,-1.7312,-1.7279,-1.742,-1.7423,-1.7425,-1.7432,-1.7436,-1.744,0,0,0,0,0,-1.6963,-1.7004,-1.7006,-1.7019,-1.7091,-1.7142,-1.7151,-1.7169,-1.7158,-1.7179,-1.7202,-1.7204,-1.7302,-1.7283,-1.7295,-1.732,-1.7418,-1.7422,-1.7425,-1.743,-1.7436,-1.744,0,0,0,0,0,0,-1.6963,-1.701,-1.7013,-1.7069,-1.7101,-1.7143,-1.717,-1.7174,-1.721,-1.7208,-1.7229,-1.7239,-1.729,-1.731,-1.7288,-1.7374,-1.7359,-1.7365,-1.7359,-1.7364,-1.7368,-1.7362,-1.7283,0,0,0,0,0,-1.6969,-1.7007,-1.7046,-1.7092,-1.7108,-1.7136,-1.7159,-1.717,-1.7204,-1.7218,-1.7245,-1.7278,-1.7317,-1.7342,-1.7379,-1.7435,-1.7445,-1.7459,-1.7463,-1.7466,-1.7471,-1.7502,-1.7508,-1.7438,-1.7438,-1.7437,0,0,-1.6983,-1.7014,-1.7036,-1.7092,-1.7119,-1.7157,-1.7148,-1.7188,-1.7217,-1.7224,-1.7275,-1.7296,-1.7334,-1.7389,-1.7414,-1.7407,-1.7492,-1.747,-1.7472,-1.7475,-1.7506,-1.7512,-1.7518,-1.744,-1.7439,-1.7439,0,0,-1.7027,-1.7054,-1.7095,-1.7122,-1.7162,-1.718,-1.719,-1.7231,-1.7246,-1.7297,-1.7303,-1.7337,-1.7403,-1.743,-1.7452,-1.7507,-1.751,-1.7519,-1.7539,-1.7569,-1.7575,-1.758,-1.7599,-1.7606,-1.7523,-1.7523,-1.7523,0,-1.7039,-1.7097,-1.7116,-1.7156,-1.7181,-1.7189,-1.7231,-1.7256,-1.7306,-1.7323,-1.7315,-1.7397,-1.7424,-1.7484,-1.7498,-1.7515,-1.7527,-1.7514,-1.7573,-1.7578,-1.7583,-1.7602,-1.7609,-1.7524,-1.7524,-1.7524,-1.7524,0,-1.711,-1.715,-1.7178,-1.7226,-1.7254,-1.7295,-1.7319,-1.7345,-1.7354,-1.7373,-1.7425,-1.7457,-1.7501,-1.7516,-1.7525,-1.7578,-1.7573,-1.7569,-1.7554,-1.759,-1.7608,-1.7615,-1.7525,-1.7525,-1.7525,-1.7525,0,0,-1.7156,-1.7214,-1.7224,-1.7246,-1.7291,-1.7322,-1.7363,-1.7406,-1.7428,-1.7462,-1.7497,-1.7553,-1.7549,-1.7574,-1.7586,-1.7613,-1.7653,-1.7605,-1.7606,-1.7613,-1.7714,-1.7716,-1.7724,-1.7656,-1.7657,-1.7658,-1.771,0,-1.7205,-1.7279,-1.7297,-1.7359,-1.7397,-1.7405,-1.7441,-1.7472,-1.7491,-1.7525,-1.7546,-1.7585,-1.7578,-1.7593,-1.762,-1.7643,-1.7674,-1.7639,-1.7688,-1.769,-1.7678,-1.7734,-1.7737,-1.7785,-1.7717,-1.7719,-1.772,0,-1.7273,-1.7308,-1.7375,-1.7415,-1.7431,-1.7463,-1.7504,-1.7536,-1.7572,-1.7584,-1.7612,-1.7621,-1.7664,-1.7648,-1.7707,-1.7683,-1.7704,-1.7719,-1.7721,-1.7726,-1.7707,-1.774,-1.78,-1.7807,-1.7731,-1.773,-1.7729,0,-1.73,-1.7364,-1.7413,-1.7431,-1.7479,-1.7501,-1.7522,-1.7556,-1.7581,-1.7616,-1.7633,-1.7673,-1.7695,-1.7726,-1.7745,-1.7731,-1.7803,-1.7788,-1.7814,-1.7814,-1.7829,-1.7828,-1.7893,-1.7843,-1.7843,-1.7842,-1.7842,0,-1.7353,-1.7393,-1.7425,-1.7455,-1.75,-1.752,-1.7564,-1.7585,-1.7616,-1.765,-1.7659,-1.7691,-1.7715,-1.775,-1.7766,-1.7813,-1.7822,-1.7833,-1.7837,-1.7832,-1.7831,-1.7846,-1.7844,-1.7844,-1.7844,-1.7844,-1.7843,0,-1.739,-1.7414,-1.7467,-1.7507,-1.7518,-1.755,-1.7585,-1.7614,-1.7633,-1.7676,-1.7687,-1.7717,-1.7759,-1.7781,-1.7833,-1.7844,-1.7896,-1.7898,-1.7884,-1.7886,-1.7911,-1.7908,-1.7988,-1.8,-1.7942,-1.7942,-1.7943,0,-1.7423,-1.7454,-1.7498,-1.7521,-1.7542,-1.758,-1.7605,-1.7626,-1.7652,-1.7694,-1.7718,-1.776,-1.7795,-1.7861,-1.7887,-1.7927,-1.793,-1.7956,-1.7936,-1.7931,-1.7931,-1.7928,-1.7932,-1.7959,-1.7959,-1.796,-1.796,0,-1.7478,-1.7487,-1.7523,-1.7564,-1.7593,-1.7626,-1.7658,-1.7677,-1.7703,-1.7731,-1.7774,-1.78,-1.7854,-1.7895,-1.7937,-1.7958,-1.7964,-1.7966,-1.7974,-1.797,-1.796,-1.7966,-1.7893,-1.7964,-1.7964,-1.7963,-1.7963,-1.7963,-1.7514,-1.7542,-1.7577,-1.7617,-1.7643,-1.7673,-1.7702,-1.7725,-1.7761,-1.7806,-1.7816,-1.786,-1.7895,-1.7952,-1.7974,-1.801,-1.8005,-1.8017,-1.802,-1.8022,-1.8023,-1.7955,-1.8018,-1.8017,-1.8017,-1.8017,-1.8017,0,-1.7569,-1.7592,-1.7628,-1.7673,-1.7704,-1.7706,-1.7742,-1.7768,-1.7807,-1.7839,-1.7873,-1.7922,-1.7962,-1.7992,-1.8033,-1.8056,-1.8059,-1.8066,-1.8064,-1.8069,-1.8025,-1.8014,-1.8062,-1.8062,-1.8062,-1.8062,-1.8062,-1.8062,-1.7601,-1.7649,-1.7663,-1.7724,-1.7747,-1.779,-1.7811,-1.7838,-1.7864,-1.7918,-1.7951,-1.797,-1.8001,-1.8045,-1.8082,-1.809,-1.8104,-1.8111,-1.8119,-1.8077,-1.8072,-1.8068,-1.8057,-1.8114,-1.8114,-1.816,-1.816,-1.816]}]]